EAG5515 ZBAD-RKSI

Flight info

Callsign EAG5515
Flight time 1h 16m
Altitude 35000
Route MUGLO4K MUGLO W34 VAPGU W100 ORAVA W201 UNSEK A326 DONVO G597 AGAVO/N0483F350 Y644 REBIT REBIT2H
Aircraft A343/H-SDE2E3FGHIJ4J5M1RWXY/LB1D1

Departure

Time 2026-05-05 00:28
Airport Beijing Daxing International Airport (ZBAD)

Arrival

Time 2026-05-05 01:45
Airport Incheon International Airport (RKSI)
Time Latitude Longitude Altitude Speed Heading
2026-05-04 23:57 39.50834 116.40569 93 ft 0 kts 154°
2026-05-05 00:18 39.50844 116.40563 92 ft 4 kts 154°
2026-05-05 00:19 39.50869 116.40548 93 ft 4 kts 154°
2026-05-05 00:19 39.50890 116.40535 91 ft 4 kts 161°
2026-05-05 00:19 39.50912 116.40533 91 ft 4 kts 223°
2026-05-05 00:19 39.50925 116.40561 91 ft 4 kts 247°
2026-05-05 00:20 39.50929 116.40573 91 ft 0 kts 246°
2026-05-05 00:23 39.50929 116.40549 91 ft 9 kts 273°
2026-05-05 00:23 39.50945 116.40395 92 ft 24 kts 269°
2026-05-05 00:24 39.50923 116.40165 94 ft 20 kts 263°
2026-05-05 00:24 39.50942 116.40092 93 ft 9 kts 327°
2026-05-05 00:24 39.51073 116.40069 92 ft 27 kts 354°
2026-05-05 00:24 39.51266 116.40036 92 ft 29 kts 352°
2026-05-05 00:25 39.51472 116.40005 92 ft 31 kts 353°
2026-05-05 00:25 39.51679 116.39965 95 ft 19 kts 336°
2026-05-05 00:25 39.51712 116.39820 98 ft 23 kts 263°
2026-05-05 00:25 39.51700 116.39690 104 ft 12 kts 268°
2026-05-05 00:26 39.51752 116.39561 102 ft 28 kts 296°
2026-05-05 00:26 39.51754 116.39284 93 ft 33 kts 264°
2026-05-05 00:26 39.51739 116.39116 93 ft 8 kts 262°
2026-05-05 00:26 39.51722 116.38967 94 ft 21 kts 261°
2026-05-05 00:27 39.51683 116.38796 100 ft 20 kts 232°
2026-05-05 00:27 39.51573 116.38760 101 ft 0 kts 173°
2026-05-05 00:27 39.51565 116.38761 100 ft 3 kts 173°
2026-05-05 00:27 39.51549 116.38764 101 ft 17 kts 173°
2026-05-05 00:28 39.51125 116.38831 102 ft 102 kts 173°
2026-05-05 00:28 39.50186 116.38978 102 ft 167 kts 172°
2026-05-05 00:28 39.48936 116.39182 557 ft 191 kts 174°
2026-05-05 00:28 39.47578 116.39364 1400 ft 203 kts 175°
2026-05-05 00:29 39.46076 116.39574 1862 ft 234 kts 175°
2026-05-05 00:29 39.44343 116.39827 2243 ft 267 kts 175°
2026-05-05 00:29 39.42450 116.40472 2760 ft 295 kts 159°
2026-05-05 00:29 39.40687 116.41980 3524 ft 312 kts 145°
2026-05-05 00:30 39.39170 116.44045 4400 ft 324 kts 124°
2026-05-05 00:30 39.38494 116.46802 5574 ft 326 kts 99°
2026-05-05 00:30 39.38095 116.49607 6679 ft 314 kts 115°
2026-05-05 00:30 39.37046 116.51990 8034 ft 299 kts 130°
2026-05-05 00:31 39.35754 116.54047 9294 ft 293 kts 136°
2026-05-05 00:31 39.34392 116.56011 10304 ft 296 kts 136°
2026-05-05 00:31 39.32982 116.58067 10826 ft 317 kts 134°
2026-05-05 00:31 39.31535 116.60334 11352 ft 335 kts 131°
2026-05-05 00:32 39.30106 116.62757 12137 ft 343 kts 130°
2026-05-05 00:32 39.28701 116.65270 13034 ft 347 kts 129°
2026-05-05 00:32 39.27303 116.67841 13864 ft 352 kts 128°
2026-05-05 00:32 39.25910 116.70426 14606 ft 358 kts 127°
2026-05-05 00:33 39.24479 116.73079 15351 ft 363 kts 127°
2026-05-05 00:33 39.23021 116.75775 16120 ft 369 kts 127°
2026-05-05 00:33 39.21537 116.78499 16893 ft 374 kts 127°
2026-05-05 00:33 39.20026 116.81257 17699 ft 379 kts 126°
2026-05-05 00:34 39.18494 116.84048 18452 ft 384 kts 126°
2026-05-05 00:34 39.16940 116.86879 19139 ft 390 kts 126°
2026-05-05 00:34 39.15365 116.89745 19867 ft 394 kts 126°
2026-05-05 00:34 39.13918 116.92763 20579 ft 399 kts 116°
2026-05-05 00:35 39.12950 116.96074 21271 ft 403 kts 103°
2026-05-05 00:35 39.12530 116.99648 21986 ft 405 kts 93°
2026-05-05 00:35 39.12343 117.03284 22670 ft 409 kts 91°
2026-05-05 00:35 39.12182 117.06956 23362 ft 413 kts 91°
2026-05-05 00:36 39.12013 117.10675 23886 ft 418 kts 91°
2026-05-05 00:36 39.11835 117.14432 24422 ft 422 kts 92°
2026-05-05 00:36 39.11649 117.18220 24980 ft 425 kts 92°
2026-05-05 00:36 39.11459 117.22025 25602 ft 426 kts 92°
2026-05-05 00:37 39.11270 117.25792 26145 ft 429 kts 92°
2026-05-05 00:37 39.11072 117.29644 26664 ft 433 kts 92°
2026-05-05 00:37 39.10869 117.33524 27178 ft 436 kts 92°
2026-05-05 00:37 39.10662 117.37434 27710 ft 439 kts 92°
2026-05-05 00:38 39.10453 117.41377 28221 ft 443 kts 92°
2026-05-05 00:38 39.10242 117.45345 28730 ft 446 kts 92°
2026-05-05 00:38 39.10028 117.49341 29272 ft 449 kts 92°
2026-05-05 00:38 39.09814 117.53303 29841 ft 450 kts 92°
2026-05-05 00:39 39.09595 117.57337 30255 ft 454 kts 92°
2026-05-05 00:39 39.09374 117.61401 30661 ft 457 kts 92°
2026-05-05 00:39 39.09149 117.65493 31073 ft 460 kts 92°
2026-05-05 00:39 39.08922 117.69609 31466 ft 462 kts 92°
2026-05-05 00:40 39.08692 117.73743 31948 ft 463 kts 91°
2026-05-05 00:40 39.08467 117.77871 32521 ft 461 kts 91°
2026-05-05 00:40 39.08240 117.81975 33083 ft 459 kts 91°
2026-05-05 00:40 39.08014 117.86013 33623 ft 458 kts 91°
2026-05-05 00:41 39.07786 117.90097 34105 ft 457 kts 91°
2026-05-05 00:41 39.07556 117.94174 34509 ft 457 kts 91°
2026-05-05 00:41 39.07325 117.98264 34790 ft 460 kts 91°
2026-05-05 00:42 39.06596 118.06603 34856 ft 480 kts 97°
2026-05-05 00:42 39.05293 118.15194 34843 ft 497 kts 99°
2026-05-05 00:43 39.03855 118.23812 34860 ft 495 kts 100°
2026-05-05 00:43 39.02434 118.32454 34866 ft 494 kts 99°
2026-05-05 00:44 39.01038 118.41102 34862 ft 493 kts 99°
2026-05-05 00:44 38.99651 118.49719 34861 ft 492 kts 99°
2026-05-05 00:45 38.98265 118.58325 34864 ft 492 kts 99°
2026-05-05 00:45 38.96874 118.66870 34889 ft 492 kts 99°
2026-05-05 00:46 38.95468 118.75459 34870 ft 491 kts 99°
2026-05-05 00:46 38.94058 118.84035 34879 ft 491 kts 99°
2026-05-05 00:47 38.92643 118.92605 34886 ft 491 kts 99°
2026-05-05 00:47 38.91232 119.01112 34878 ft 490 kts 99°
2026-05-05 00:48 38.89813 119.09659 34879 ft 489 kts 99°
2026-05-05 00:48 38.88379 119.18196 34879 ft 489 kts 99°
2026-05-05 00:49 38.86939 119.26728 34881 ft 489 kts 99°
2026-05-05 00:49 38.85495 119.35245 34878 ft 488 kts 99°
2026-05-05 00:50 38.84059 119.43692 34884 ft 488 kts 99°
2026-05-05 00:50 38.82605 119.52194 34893 ft 488 kts 99°
2026-05-05 00:51 38.81148 119.60689 34899 ft 487 kts 99°
2026-05-05 00:51 38.79687 119.69173 34894 ft 487 kts 99°
2026-05-05 00:52 38.78231 119.77591 34895 ft 487 kts 100°
2026-05-05 00:52 38.76765 119.86067 34904 ft 487 kts 99°
2026-05-05 00:53 38.75365 119.94540 34911 ft 485 kts 99°
2026-05-05 00:53 38.73972 120.02997 34911 ft 486 kts 99°
2026-05-05 00:54 38.72564 120.11399 34914 ft 486 kts 99°
2026-05-05 00:54 38.70927 120.19797 34919 ft 488 kts 107°
2026-05-05 00:55 38.68013 120.27676 34918 ft 491 kts 115°
2026-05-05 00:55 38.64736 120.35341 34918 ft 491 kts 116°
2026-05-05 00:56 38.61407 120.42962 34930 ft 490 kts 117°
2026-05-05 00:56 38.58127 120.50504 34928 ft 488 kts 117°
2026-05-05 00:57 38.55643 120.58500 34935 ft 483 kts 102°
2026-05-05 00:57 38.54153 120.66853 34935 ft 482 kts 99°
2026-05-05 00:58 38.52816 120.75247 34943 ft 482 kts 99°
2026-05-05 00:58 38.51486 120.83582 34944 ft 482 kts 99°
2026-05-05 00:59 38.50122 120.91966 34943 ft 483 kts 99°
2026-05-05 00:59 38.48740 121.00352 34949 ft 482 kts 99°
2026-05-05 01:00 38.47353 121.08717 34957 ft 482 kts 99°
2026-05-05 01:00 38.45973 121.17018 34954 ft 481 kts 99°
2026-05-05 01:01 38.44611 121.25377 34968 ft 481 kts 99°
2026-05-05 01:01 38.43260 121.33745 34964 ft 482 kts 99°
2026-05-05 01:02 38.41913 121.42118 34971 ft 482 kts 99°
2026-05-05 01:02 38.40554 121.50491 34971 ft 482 kts 99°
2026-05-05 01:03 38.39170 121.58797 34973 ft 483 kts 99°
2026-05-05 01:03 38.37754 121.67183 34979 ft 484 kts 99°
2026-05-05 01:04 38.36340 121.75574 34981 ft 484 kts 99°
2026-05-05 01:04 38.34218 121.88164 34984 ft 487 kts 100°
2026-05-05 01:05 38.32796 121.96545 34993 ft 487 kts 100°
2026-05-05 01:05 38.31358 122.04973 34994 ft 487 kts 99°
2026-05-05 01:06 38.29913 122.13405 34996 ft 488 kts 101°
2026-05-05 01:06 38.28453 122.21863 35001 ft 489 kts 100°
2026-05-05 01:07 38.27057 122.30276 35014 ft 489 kts 99°
2026-05-05 01:07 38.25805 122.38761 35010 ft 488 kts 102°
2026-05-05 01:08 38.23216 122.46750 35009 ft 493 kts 120°
2026-05-05 01:08 38.18834 122.53462 35016 ft 495 kts 133°
2026-05-05 01:09 38.13991 122.59692 35018 ft 496 kts 134°
2026-05-05 01:09 38.09129 122.65829 35030 ft 496 kts 134°
2026-05-05 01:10 38.04279 122.72067 35030 ft 496 kts 134°
2026-05-05 01:10 37.99458 122.78322 35035 ft 496 kts 134°
2026-05-05 01:11 37.94644 122.84568 35041 ft 496 kts 134°
2026-05-05 01:11 37.89852 122.90771 35044 ft 496 kts 134°
2026-05-05 01:12 37.85014 122.97012 35048 ft 496 kts 135°
2026-05-05 01:12 37.80161 123.03256 35053 ft 497 kts 135°
2026-05-05 01:13 37.75308 123.09489 35060 ft 497 kts 135°
2026-05-05 01:13 37.70485 123.15675 35059 ft 498 kts 135°
2026-05-05 01:14 37.65628 123.21893 35070 ft 498 kts 135°
2026-05-05 01:14 37.60768 123.28101 35075 ft 497 kts 135°
2026-05-05 01:15 37.56063 123.34489 35073 ft 497 kts 129°
2026-05-05 01:15 37.51855 123.41344 35075 ft 498 kts 128°
2026-05-05 01:16 37.47692 123.48341 35084 ft 499 kts 127°
2026-05-05 01:16 37.43533 123.55344 35082 ft 500 kts 127°
2026-05-05 01:17 37.39358 123.62338 35086 ft 500 kts 128°
2026-05-05 01:17 37.35205 123.69266 35091 ft 500 kts 128°
2026-05-05 01:18 37.31011 123.76238 35094 ft 500 kts 128°
2026-05-05 01:18 37.26820 123.83197 34985 ft 497 kts 128°
2026-05-05 01:19 37.24738 123.86652 34425 ft 493 kts 128°
2026-05-05 01:19 37.22710 123.90008 33999 ft 485 kts 127°
2026-05-05 01:19 37.20694 123.93378 33279 ft 482 kts 125°
2026-05-05 01:19 37.18971 123.96969 32503 ft 480 kts 116°
2026-05-05 01:20 37.17732 124.00847 31665 ft 479 kts 106°
2026-05-05 01:20 37.17071 124.04929 30907 ft 476 kts 95°
2026-05-05 01:20 37.16957 124.09044 30299 ft 470 kts 88°
2026-05-05 01:20 37.17054 124.13121 29543 ft 466 kts 86°
2026-05-05 01:21 37.17214 124.17156 28850 ft 461 kts 85°
2026-05-05 01:21 37.17392 124.21145 28149 ft 456 kts 85°
2026-05-05 01:21 37.17568 124.25092 27490 ft 451 kts 86°
2026-05-05 01:21 37.17719 124.28946 26868 ft 446 kts 86°
2026-05-05 01:22 37.17834 124.32814 26224 ft 442 kts 87°
2026-05-05 01:22 37.17927 124.36643 25615 ft 437 kts 87°
2026-05-05 01:22 37.18010 124.40433 25000 ft 433 kts 87°
2026-05-05 01:22 37.18094 124.44187 24406 ft 428 kts 88°
2026-05-05 01:23 37.18177 124.47901 23813 ft 424 kts 88°
2026-05-05 01:23 37.18257 124.51581 23298 ft 420 kts 88°
2026-05-05 01:23 37.18338 124.55240 23133 ft 421 kts 88°
2026-05-05 01:23 37.18419 124.58908 23113 ft 421 kts 88°
2026-05-05 01:24 37.18500 124.62573 23116 ft 420 kts 88°
2026-05-05 01:24 37.18580 124.66227 23117 ft 419 kts 87°
2026-05-05 01:24 37.18658 124.69833 23126 ft 419 kts 88°
2026-05-05 01:24 37.18736 124.73484 23123 ft 419 kts 88°
2026-05-05 01:25 37.18814 124.77136 23127 ft 419 kts 88°
2026-05-05 01:25 37.18864 124.80787 23136 ft 419 kts 92°
2026-05-05 01:25 37.18802 124.84439 23117 ft 419 kts 92°
2026-05-05 01:25 37.18812 124.88093 23135 ft 420 kts 90°
2026-05-05 01:26 37.18878 124.91750 23135 ft 419 kts 89°
2026-05-05 01:26 37.18951 124.95405 23132 ft 419 kts 90°
2026-05-05 01:26 37.19017 124.99054 23123 ft 419 kts 90°
2026-05-05 01:26 37.19083 125.02658 23123 ft 419 kts 90°
2026-05-05 01:27 37.19145 125.06283 22879 ft 410 kts 90°
2026-05-05 01:27 37.19212 125.09845 22065 ft 408 kts 90°
2026-05-05 01:27 37.19282 125.13405 21274 ft 407 kts 90°
2026-05-05 01:27 37.19353 125.16936 20604 ft 402 kts 90°
2026-05-05 01:28 37.19417 125.20423 19942 ft 398 kts 91°
2026-05-05 01:28 37.19473 125.23869 19263 ft 394 kts 91°
2026-05-05 01:28 37.19530 125.27282 18678 ft 388 kts 90°
2026-05-05 01:28 37.19590 125.30603 18039 ft 383 kts 91°
2026-05-05 01:29 37.19646 125.33930 17324 ft 380 kts 91°
2026-05-05 01:29 37.19704 125.37233 16617 ft 377 kts 91°
2026-05-05 01:29 37.19769 125.40507 15921 ft 374 kts 90°
2026-05-05 01:29 37.19828 125.43761 15239 ft 372 kts 91°
2026-05-05 01:30 37.19937 125.46992 14596 ft 369 kts 88°
2026-05-05 01:30 37.19893 125.50177 14197 ft 359 kts 99°
2026-05-05 01:30 37.19527 125.53179 13899 ft 347 kts 102°
2026-05-05 01:30 37.19128 125.56174 13432 ft 341 kts 103°
2026-05-05 01:31 37.18743 125.59058 12826 ft 339 kts 102°
2026-05-05 01:31 37.18350 125.61978 12241 ft 339 kts 102°
2026-05-05 01:31 37.17970 125.64886 11663 ft 337 kts 102°
2026-05-05 01:31 37.17593 125.67783 11206 ft 335 kts 102°
2026-05-05 01:32 37.17226 125.70664 11008 ft 335 kts 100°
2026-05-05 01:32 37.17180 125.72610 10984 ft 340 kts 88°
2026-05-05 01:32 37.18103 125.76401 10991 ft 343 kts 63°
2026-05-05 01:32 37.19463 125.78789 10999 ft 340 kts 52°
2026-05-05 01:33 37.21063 125.80969 10993 ft 339 kts 47°
2026-05-05 01:33 37.22735 125.83037 10806 ft 335 kts 46°
2026-05-05 01:33 37.24429 125.85037 10240 ft 334 kts 44°
2026-05-05 01:33 37.26156 125.86979 9650 ft 333 kts 43°
2026-05-05 01:34 37.27308 125.88243 9248 ft 332 kts 43°
2026-05-05 01:34 37.29043 125.90140 8639 ft 329 kts 43°
2026-05-05 01:34 37.31342 125.92660 7881 ft 327 kts 43°
2026-05-05 01:34 37.32469 125.93898 7625 ft 321 kts 43°
2026-05-05 01:35 37.34118 125.95711 7411 ft 308 kts 43°
2026-05-05 01:35 37.35699 125.97451 7191 ft 297 kts 43°
2026-05-05 01:35 37.37233 125.99143 7023 ft 289 kts 42°
2026-05-05 01:35 37.39203 126.01314 6990 ft 280 kts 43°
2026-05-05 01:36 37.40193 126.02403 6993 ft 279 kts 42°
2026-05-05 01:36 37.41632 126.03989 6992 ft 279 kts 42°
2026-05-05 01:36 37.43089 126.05597 6999 ft 279 kts 42°
2026-05-05 01:36 37.44546 126.07212 6993 ft 279 kts 42°
2026-05-05 01:37 37.46006 126.08830 6990 ft 280 kts 42°
2026-05-05 01:37 37.47467 126.10445 6992 ft 280 kts 42°
2026-05-05 01:37 37.48925 126.12060 6870 ft 277 kts 42°
2026-05-05 01:37 37.50833 126.14177 6360 ft 277 kts 42°
2026-05-05 01:38 37.51811 126.15262 6074 ft 277 kts 42°
2026-05-05 01:38 37.53240 126.16835 5677 ft 276 kts 43°
2026-05-05 01:38 37.54693 126.18420 5298 ft 275 kts 42°
2026-05-05 01:38 37.56141 126.19989 4937 ft 273 kts 42°
2026-05-05 01:39 37.57579 126.21541 4534 ft 272 kts 43°
2026-05-05 01:39 37.58814 126.23324 4191 ft 267 kts 61°
2026-05-05 01:39 37.59802 126.25281 3913 ft 261 kts 58°
2026-05-05 01:39 37.60902 126.27055 3724 ft 253 kts 53°
2026-05-05 01:40 37.62050 126.28680 3569 ft 242 kts 50°
2026-05-05 01:40 37.63065 126.30236 3363 ft 223 kts 65°
2026-05-05 01:40 37.63262 126.32008 3052 ft 196 kts 111°
2026-05-05 01:40 37.62480 126.33246 2536 ft 178 kts 160°
2026-05-05 01:41 37.61288 126.33668 1903 ft 183 kts 171°
2026-05-05 01:41 37.60069 126.34159 1627 ft 180 kts 165°
2026-05-05 01:41 37.58989 126.34754 1592 ft 157 kts 159°
2026-05-05 01:41 37.58105 126.35388 1603 ft 138 kts 154°
2026-05-05 01:42 37.57327 126.36039 1611 ft 132 kts 153°
2026-05-05 01:42 37.56573 126.36711 1597 ft 134 kts 152°
2026-05-05 01:42 37.55821 126.37379 1598 ft 134 kts 152°
2026-05-05 01:42 37.55057 126.38055 1600 ft 135 kts 152°
2026-05-05 01:43 37.54289 126.38738 1492 ft 135 kts 152°
2026-05-05 01:43 37.53528 126.39422 1319 ft 134 kts 151°
2026-05-05 01:43 37.52776 126.40097 1128 ft 132 kts 151°
2026-05-05 01:43 37.52030 126.40763 949 ft 131 kts 150°
2026-05-05 01:44 37.51287 126.41427 765 ft 130 kts 149°
2026-05-05 01:44 37.50550 126.42086 592 ft 130 kts 147°
2026-05-05 01:44 37.49818 126.42741 408 ft 129 kts 148°
2026-05-05 01:44 37.49084 126.43397 241 ft 128 kts 147°
2026-05-05 01:45 37.48368 126.44036 64 ft 127 kts 144°
2026-05-05 01:45 37.47713 126.44621 37 ft 95 kts 145°
2026-05-05 01:45 37.47321 126.44970 37 ft 43 kts 143°
2026-05-05 01:45 37.47161 126.45105 35 ft 25 kts 150°
2026-05-05 01:46 37.46996 126.45174 37 ft 25 kts 176°
2026-05-05 01:46 37.46926 126.45182 37 ft 0 kts 175°
2026-05-05 01:49 37.46923 126.45182 37 ft 3 kts 175°
2026-05-05 01:49 37.46862 126.45187 37 ft 11 kts 175°
2026-05-05 01:49 37.46783 126.45203 37 ft 12 kts 163°
2026-05-05 01:50 37.46700 126.45258 37 ft 16 kts 144°
2026-05-05 01:50 37.46601 126.45345 37 ft 19 kts 145°
2026-05-05 01:50 37.46488 126.45446 37 ft 21 kts 144°
2026-05-05 01:50 37.46376 126.45489 37 ft 17 kts 203°
2026-05-05 01:51 37.46297 126.45374 37 ft 19 kts 234°
2026-05-05 01:51 37.46218 126.45230 37 ft 21 kts 234°
2026-05-05 01:51 37.46097 126.45221 37 ft 19 kts 148°
2026-05-05 01:51 37.45982 126.45322 37 ft 21 kts 144°
2026-05-05 01:52 37.45856 126.45434 37 ft 22 kts 145°
2026-05-05 01:52 37.45777 126.45472 37 ft 2 kts 185°
2026-05-05 01:52 37.45679 126.45345 35 ft 25 kts 235°
2026-05-05 01:52 37.45588 126.45263 37 ft 18 kts 178°
2026-05-05 01:53 37.45441 126.45314 37 ft 25 kts 163°
2026-05-05 01:53 37.45311 126.45364 37 ft 7 kts 166°
2026-05-05 01:53 37.45285 126.45346 37 ft 6 kts 230°
2026-05-05 01:53 37.45260 126.45264 37 ft 7 kts 253°
2026-05-05 01:54 37.45254 126.45241 37 ft 0 kts 253°